Powrót do katalogu

COSMOS 1745

AktywnyMilitariaPO
NORAD 16727·PAYLOAD·🇷🇺 Russia

Wystrzelony May 23, 1986 z Plesetsk Cosmodrome

Loading…

Następne Przeloty (najbliższe 24 godziny)

TLE

ŚwieżeSource: Space-Track

Epoka: Sep 14, 2026, 09:13 UTC

1 16727U 86037A   26257.38459751  .00000048  00000-0  35339-4 0  9990
2 16727  82.9584  39.6029 0030383 317.4351  60.8756 13.74428152 21429

Śledź COSMOS 1745 w czasie rzeczywistym z AllMySat

Download on the App Store